Regional Weather Roundup
Issued by NWS

Home | Current Version | Previous Version | Graphics & Text | Print | Product List | Glossary On
Versions: 1 2 3 4 5 6 7 8 9 10 11 12 13 14 15 16 17 18 19 20 21 22 23 24 25 26 27
000
ASUS45 KBOI 202110
RWRID

IDAHO REGIONAL WEATHER ROUNDUP
NATIONAL WEATHER SERVICE BOISE ID
200 PM MST MON FEB 20 2017

NOTE: "FAIR" INDICATES FEW OR NO CLOUDS BELOW 12000 FEET
WITH NO SIGNIFICANT WEATHER AND/OR OBSTRUCTIONS TO VISIBILITY

IDZ012-014-202200-
SOUTHWEST IDAHO


CITY           SKY/WX    TMP DP  RH WIND       PRES   REMARKS
BOISE          CLOUDY    56  40  55 S14       29.75F
CALDWELL       CLOUDY    59  40  49 S20G25    29.72F
MOUNTAIN HOME  CLOUDY    55  40  56 SW21      29.78F
$$

IDZ016-017-202200-
SOUTHCENTRAL IDAHO


CITY           SKY/WX    TMP DP  RH WIND       PRES   REMARKS
BURLEY         CLOUDY    49  36  61 S28       29.83F
JEROME           N/A    N/A N/A N/A MISG      29.85R
TWIN FALLS     CLOUDY    50  36  58 S35G49    29.77F
$$

IDZ019>023-202200-
SOUTHEAST IDAHO


CITY           SKY/WX    TMP DP  RH WIND       PRES   REMARKS
IDAHO FALLS    CLOUDY    41  37  86 S20       29.89F
POCATELLO      LGT RAIN  41  37  86 S29G36    29.94R
REXBURG        LGT RAIN  42  37  82 S21G32    29.88F
$$

IDZ006-010-011-018-031-032-202200-
CENTRAL IDAHO MOUNTAINS


CITY           SKY/WX    TMP DP  RH WIND       PRES   REMARKS
MCCALL         CLOUDY    42  33  70 S20G28    29.70R
HAILEY         LGT RAIN  36  36 100 SE12      29.88F WCI  27
STANLEY          N/A     36  34  92 SE8       29.76R WCI  30
SALMON         CLOUDY    45  34  65 SW17      29.65F
CHALLIS        LGT RAIN  41  35  79 S13       29.71S
$$

IDZ002-004-006-007-026-202200-
NORTHERN IDAHO


CITY           SKY/WX    TMP DP  RH WIND       PRES   REMARKS
LEWISTON       LGT RAIN  49  43  80 S3        29.55S
LOWELL           N/A     44  38  79 VRB3      29.63F
COEUR D`ALENE  LGT RAIN  38  35  89 N8        29.53F WCI  32
MULLAN PASS    SNOW      30  30 100 S8G18     29.51S VSB 1/4 WCI  22
$$




USA.gov is the U.S. government's official web portal to all federal, state and local government web resources and services.